Back to catalog

THOR ABLESTAR DEB

AliveLEO
NORAD 354·DEBRIS·🇺🇸 United States

Launched Jun 29, 1961 from Cape Canaveral Space Force Station

Loading…

Next Passes (next 24 hours)

TLE

FreshSource: Space-Track

Epoch: Sep 14, 2026, 10:10 UTC

1 00354U 61015DU  26257.42397142  .00000160  00000-0  32862-3 0  9990
2 00354  67.0647 259.1642 0172028 247.7467 185.2191 13.49482660489911

Track THOR ABLESTAR DEB in real time with AllMySat

Download on the App Store